Regional Weather Roundup
Issued by NWS Upton, NY

Current Version | Previous Version | Text Only | Print | Product List | Glossary Off
Versions: 1 2 3 4 5 6 7 8 9 10 11 12 13 14 15 16 17 18 19 20 21 22 23 24 25 26 27 28 29 30 31 32 33 34 35 36 37 38 39 40 41 42 43 44 45 46 47 48 49 50
923 ASUS41 KOKX 280904 RWROKX REGIONAL WEATHER ROUNDUP NATIONAL WEATHER SERVICE NEW YORK NY 500 AM EDT THU JUL 28 2016 NOTE: "FAIR" INDICATES FEW OR NO CLOUDS BELOW 12,000 FEET WITH NO SIGNIFICANT WEATHER AND/OR OBSTRUCTIONS TO VISIBILITY. NYZ071-072-176-178-NJZ106-104-281000- NEW YORK CITY METRO AREA CITY SKY/WX TMP DP RH WIND PRES REMARKS Central Park CLEAR 78 71 79 CALM 29.93S LaGuardia APRT CLEAR 80 73 79 CALM 29.90R Kennedy INTL PTCLDY 74 71 91 SW6 29.91S Newark/Liberty PTCLDY 77 71 82 CALM 29.90S Bronx Bot Gard N/A 75 70 83 CALM 29.92S Wall St Helipt SUNNY 79 73 83 SW6 29.91S Teterboro CLEAR 75 64 68 CALM 29.90R $$ NYZ177-179-078>081-281000- LONG ISLAND NEW YORK CITY SKY/WX TMP DP RH WIND PRES REMARKS Farmingdale PTCLDY 76 74 93 CALM 29.91S MacArthur/ISP CLOUDY 75 74 96 W5 29.90S Shirley CLOUDY 75 74 96 SW6 29.91S FOG Riverhead NOT AVBL Westhampton FOG 73 71 93 CALM 29.92S VSB 3/4 Southhampton N/A 72 70 94 CALM 29.87R Bridgehampton N/A 68 66 94 CALM 29.90R East Hampton FAIR 64 63 96 CALM 29.90S Montauk N/A 71 70 96 CALM 29.92R $$ NYZ052-065-067-281000- HUDSON VALLEY CITY SKY/WX TMP DP RH WIND PRES REMARKS White Plains CLEAR 70 68 93 NW5 29.92R Newburgh CLEAR 66 63 88 CALM 29.94S Montgomery CLEAR 63 62 97 SW3 29.92S Poughkeepsie CLEAR 65 61 87 CALM 29.91S Albany PTCLDY 66 61 84 CALM 29.90S $$ NJZ001-105-106-008-010-013-015-019>022-104-281000- NEW JERSEY CITY SKY/WX TMP DP RH WIND PRES REMARKS Newark/Liberty PTCLDY 77 71 82 CALM 29.90S Teterboro CLEAR 75 64 68 CALM 29.90R Caldwell CLEAR 69 66 90 CALM 29.92S Morristown FOG 63 61 94 CALM 29.92S VSB 3/4 Somerville CLEAR 66 64 93 CALM 29.89F Linden FAIR 74 70 86 CALM 29.92S Sussex CLEAR 62 61 96 CALM 29.93F Abdover N/A 62 61 96 CALM 29.94S Trenton CLEAR 72 69 90 NW3 29.90F Millville MOCLDY 72 70 93 CALM 29.90F FOG Atlantic City CLEAR 72 69 90 CALM 29.90S Wrightstown CLEAR 72 72 100 CALM 29.88S FOG Toms River CLEAR 70 69 97 CALM 29.91S Belmar CLEAR 73 72 96 W3 29.92S $$ PAZ047>061-062-071-281000- EASTERN PENNSYLVANIA CITY SKY/WX TMP DP RH WIND PRES REMARKS Philadelphia PTCLDY 76 72 87 CALM 29.91S Allentown CLEAR 66 62 87 CALM 29.92F Scranton CLEAR 66 60 81 E5 29.94F $$ CTZ002-004>006-009-010-012-RIZ004-006-007-MAZ004-011-015-281000- SOUTHERN NEW ENGLAND IN CT CITY SKY/WX TMP DP RH WIND PRES REMARKS Bradley INTL PTCLDY 66 61 84 NW3 29.91R Hartford CLEAR 72 67 84 S3 29.90R Danbury CLEAR 64 62 93 CALM 29.94R Wtrbury/Oxford N/A 64 61 88 CALM 29.94S Bridgeport PTCLDY 73 68 84 CALM 29.90S Meriden CLEAR 67 63 87 CALM 29.91S New Haven CLEAR 68 66 93 CALM 29.91R Chester FAIR 72 68 88 W5 29.92R Groton CLEAR 70 67 90 CALM 29.90R Wilimantic NOT AVBL IN RI CITY SKY/WX TMP DP RH WIND PRES REMARKS Providence CLEAR 69 65 86 S5 29.90S Block Island PTCLDY 70 69 97 CALM 29.91S Westerly CLEAR 68 64 87 CALM 29.91S IN MA CITY SKY/WX TMP DP RH WIND PRES REMARKS Boston PTCLDY 76 63 64 W5 29.88S Worchester CLEAR 71 59 65 W8 29.93S Westfield CLEAR 63 60 90 CALM 29.91R Provincetown CLEAR 71 69 93 S6 29.89S Nantucket PTCLDY 70 68 93 SW7 29.91S $$ ANZ330-335-338-340-345-350-353-355-281000- COASTAL MARINE OBSERVATIONS STATION/POSITION TIME SKY/WX TEMP WIND PRES VSBY WAVE AIR SEA DIR/SP/G HT/PER (UTC) (F) (DEG/KT/KT) (MB) (MI) (FT/S) NY HARB ENTRANCE 0750 75 74 250/ 4/ 4 1012.2 1/ 6 20S FIRE ISLAND 0750 76 76 230/ 6/ 8 1012.2 1/ 7 GREAT SOUTH BAY 0800 77 81 250/ 8/ 10 N/A 23 SSW MONTAUK P 0750 73 70 200/ 2/ 4 1013.0 1/ 9 15 E BARNEGAT LI 0822 78 N/A 1/ 7 HUDSON CANYON 0750 78 79 1012.4 1/ 8 KINGS POINT 0800 75 73 1012.3 EXECUTION ROCKS 0800 73 20/ 2/ 4 N/A CENTRAL LI SOUND NOT AVBL EASTERN LI SOUND 0800 71 70 180/ 2/ 4 N/A ROBBINS REEF 0800 76 CALM 1011.9 $$ >>>>>>>>>>>>>>>>>>>>>>>>>>>> KEY <<<<<<<<<<<<<<<<<<<<<<<<<<< > < > SKY/WX - Sky Condition/Present Weather < > TMP - Temperature in Fahrenheit < > DP - Dew Point in Fahrenheit < > RH - Relative Humidity in Percent < > WIND - Direction (from) and Speed in MPH < > PRES - Mean Sea Level Pressure (inches of Hg) < > WCI - Wind Chill Index < > VSB - VISIBILITY IN MILES < > HX - HEAT INDEX < > TC - TEMPERATURE IN CELSIUS < > VRB - VARIABLE WIND DIRECTION < > < >>>>>>>>>>>>>>>>>>>>>>>>>>>> KEY <<<<<<<<<<<<<<<<<<<<<<<<<<<

USA.gov is the U.S. government's official web portal to all federal, state and local government web resources and services.